Flag for U.S.A. Weather past 2 weeks in Cleveland, Tennessee, U.S.A.

Now
52 °F

Passing clouds.


Feels Like: 52 °F
Forecast: 45 / 68 °F
Wind: No wind

Location: Lovell Field

Current Time: Oct 20, 2014 at 1:14:45 AM

Latest Report: Oct 19, 2014 at 10:53 PM


Visibility: 10 mi

Pressure: 30.11 "Hg

Humidity: 86%

Dew point: 48 °F

Location of ClevelandLocation

Historic Weather in Cleveland — Graph

°F

Cleveland temperature yesterday

Maximum temperature yesterday: 67 °F (at 4:53 PM)
Minimum temperature yesterday: 49 °F (at 7:53 AM)
Average temperature yesterday: 57 °F

Past Weeks' High & Low Weather Summary

 TemperatureHumidityPressure
High83 °F (Oct 10, 12:53 PM)100% (Oct 17, 4:53 AM)30.21 "Hg (Oct 17, 4:53 AM)
Low34 °F (Oct 17, 4:59 AM)29% (Oct 5, 2:53 PM)29.72 "Hg (Oct 14, 7:53 AM)
Average65 °F75%29.98 "Hg
* Reported Oct 4 10:53 PM — Oct 19 10:53 PM, Cleveland, Weather by CustomWeather, © 2014

Note: Actual official high and low records may vary slightly from our data, if they occured in-between our weather recording intervals... More about our weather records

Advertising

Cleveland weather history for previous 24 hours

 ConditionsComfort  
Time TempWeatherWind HumidityBarometerVisibility
10:53 PM
Oct 19
52 °FPassing clouds.No wind86%30.11 "Hg10 mi
9:53 PM53 °FPassing clouds.No wind83%30.11 "Hg10 mi
8:53 PM54 °FPassing clouds.No wind83%30.11 "Hg10 mi
7:53 PM58 °FPartly sunny.No wind72%30.10 "Hg10 mi
6:53 PM63 °FPartly sunny.5 mph54%30.09 "Hg10 mi
5:53 PM65 °FPartly sunny.7 mph49%30.08 "Hg10 mi
4:53 PM67 °FScattered clouds.5 mph45%30.09 "Hg10 mi
3:53 PM66 °FScattered clouds.8 mph49%30.10 "Hg10 mi
2:53 PM65 °FScattered clouds.10 mph51%30.11 "Hg10 mi
1:53 PM63 °FScattered clouds.9 mph54%30.15 "Hg10 mi
12:53 PM62 °FScattered clouds.7 mph54%30.18 "Hg10 mi
11:53 AM59 °FScattered clouds.14 mph58%30.20 "Hg10 mi
10:53 AM57 °FScattered clouds.14 mph60%30.20 "Hg10 mi
9:53 AM56 °FScattered clouds.12 mph62%30.21 "Hg10 mi
8:53 AM53 °FScattered clouds.No wind74%30.19 "Hg10 mi
7:53 AM49 °FPassing clouds.5 mph80%30.17 "Hg10 mi
6:53 AM51 °FPassing clouds.7 mph71%30.16 "Hg10 mi
5:53 AM51 °FPassing clouds.7 mph77%30.14 "Hg10 mi
4:53 AM50 °FClear.3 mph80%30.11 "Hg10 mi
3:53 AM52 °FClear.10 mph77%30.10 "Hg10 mi
2:53 AM52 °FClear.7 mph75%30.11 "Hg10 mi
1:53 AM52 °FClear.9 mph75%30.11 "Hg10 mi
Weather by CustomWeather, © 2014

See weather overviewHow to use our weather pages